Regional Weather Roundup
Issued by NWS Sterling, VA

Home | Current Version | Previous Version | Text Only | Print | Product List | Glossary On
Versions: 1 2 3 4 5 6 7 8 9 10 11 12 13 14 15 16 17 18 19 20 21 22 23 24 25 26 27 28 29 30 31 32 33 34 35 36 37 38 39 40 41 42 43 44 45 46 47 48 49 50
000
ASUS41 KLWX 060710
RWRLWX

REGIONAL WEATHER ROUNDUP
NATIONAL WEATHER SERVICE BALTIMORE MD/WASHINGTON DC
300 AM EDT MON JUL 06 2015

Note: "FAIR" indicates few or no clouds below 12,000 feet
with no significant weather and/or obstructions to visibility.
 TC=TEMPERATURE CELSIUS

 * =Non NWS site. Station does not report precipitation (e.g. rain,
    snow, etc.), thunder, or fog.

DCZ001-MDZ009-015-VAZ040>042-051-053>054-060800-
WASHINGTON METRO

CITY           SKY/WX    TMP DP  RH WIND       PRES   REMARKS
WASHINGTON NAT CLOUDY    77  72  84 CALM      30.12S
DULLES         CLOUDY    72  72 100 CALM      30.11F
ANDREWS AFB    CLOUDY    73  72  99 E3        30.11F
FT BELVOIR     CLOUDY    72  70  94 CALM      30.10F
QUANTICO       CLOUDY    76  71  85 SE7       30.10F
COLLEGE PARK*  CLOUDY    72  72 100 CALM      30.11F
LEESBURG*      CLOUDY    72  72 100 CALM      30.12F FOG
MANASSAS*      CLOUDY    73  73 100 CALM        N/A
GAITHERSBURG*  CLOUDY    72  68  88 CALM      30.16S

$$

MDZ006>007-011-014-060800-
BALTIMORE METRO

CITY           SKY/WX    TMP DP  RH WIND       PRES   REMARKS
BWI AIRPORT    LGT RAIN  74  72  93 E5        30.11F
MD SCIENCE CTR   N/A     75  72  90 MISG      30.12F
MARTIN STATE   RAIN      73  73 100 CALM      30.14S
ANNAPOLIS      CLOUDY    76  72  87 SE8       30.11S
FORT MEADE*    CLOUDY    70  68  94 E3        30.14S

$$

MDZ012-015-019>023-060800-
MARYLAND EASTERN SHORE

CITY           SKY/WX    TMP DP  RH WIND       PRES   REMARKS
OCEAN CITY     CLOUDY    75  72  90 SE3       30.13R
SALISBURY      LGT RAIN  72  70  93 CALM      30.13R
BAY BRIDGE AP*   N/A     73  70  88 SE5       30.12S
CAMBRIDGE*     CLOUDY    73  70  88 E3        30.12S
EASTON*        DRIZZLE  N/A N/A N/A CALM      30.16S

$$

MDZ017>025-060800-
SOUTHERN MARYLAND

CITY           SKY/WX    TMP DP  RH WIND       PRES   REMARKS
PATUXENT RIVER CLOUDY    75  72  90 SW3       30.11R
ST INIGOES     NOT AVBL
LEONARDTOWN*   CLOUDY    72  70  94 CALM      30.13S

$$

MDZ003>005-060800-
NORTH CENTRAL MARYLAND

CITY           SKY/WX    TMP DP  RH WIND       PRES   REMARKS
FREDERICK*     CLOUDY    72  72 100 CALM      30.14F FOG
HAGERSTOWN APT LGT RAIN  74  69  85 SE7       30.12S
WESTMINSTER*   CLOUDY    72  70  94 SE5       30.14F

$$

MDZ501>502-060800-
WESTERN MARYLAND

CITY           SKY/WX    TMP DP  RH WIND       PRES   REMARKS
OAKLAND*       CLOUDY    64 N/A N/A SE6       30.18S FOG
CUMBERLAND*    CLOUDY    73  70  88 CALM      30.14S

$$

VAZ025>031-060800-
SHENANDOAH VALLEY

CITY           SKY/WX    TMP DP  RH WIND       PRES   REMARKS
WINCHESTER*    LGT RAIN  70  70 100 CALM      30.10F
FRONT ROYAL*   FAIR      68  68 100 CALM      30.09F
LURAY*         CLOUDY    70  70 100 CALM      30.11S FOG
NEW MARKET*    PTSUNNY   68  68  99 N3        30.09S
STAUNTON*      CLOUDY    72  70  95 CALM      30.12F FOG
WAYNESBORO*    CLOUDY    68  68  99 S6        30.12S

$$

WVZ021-048>050-054>055-060800-
EASTERN WEST VIRGINIA PANHANDLE

CITY           SKY/WX    TMP DP  RH WIND       PRES   REMARKS
MARTINSBURG    LGT RAIN  72  70  93 CALM      30.12S FOG
PETERSBURG*    CLOUDY    68  66  92 CALM      30.11S FOG

$$

VAZ036>039-050-060800-
CENTRAL FOOTHILLS

CITY           SKY/WX    TMP DP  RH WIND       PRES   REMARKS
CHARLOTTESVILL CLOUDY    71  69  93 CALM      30.10F
CULPEPER*      RAIN      69  69 100 CALM      30.11F
ORANGE*        CLOUDY    72  70  94 CALM      30.12F FOG
GORDONSVILLE*  CLOUDY    70  70 100 CALM      30.10S FOG
WARRENTON*     DRIZZLE   73  73 100 CALM      30.10F

$$

VAZ055>057-060800-
NORTH AND CENTRAL PIEDMONT

CITY           SKY/WX    TMP DP  RH WIND       PRES   REMARKS
FREDERICKSBRG* DRIZZLE   75  75 100 CALM      30.09F
STAFFORD*      LGT RAIN  72  71  95 CALM      30.14F

$$

NCZ024-NYZ072-PAZ021-071-VAZ022-071-060800-
OTHER REGIONAL OBSERVATIONS

CITY           SKY/WX    TMP DP  RH WIND       PRES   REMARKS
NEW YORK CITY  MOCLDY    74  65  73 CALM      30.17S
PHILADELPHIA   CLOUDY    73  68  84 CALM      30.15S
PITTSBURGH     CLOUDY    72  65  78 SE6       30.06F
ROANOKE        CLOUDY    69  69 100 SE9       30.10S
RICHMOND       CLOUDY    72  70  93 CALM      30.08F
RALEIGH        MOCLDY    70  69  97 SE6       30.10R

$$

ANZ530>537-060800-
MARINE OBSERVATIONS

STATION/POSITION TIME  TEMP    WIND        PRES
                       AIR SEA DIR/SP/G
                 (UTC) (F)     (DEG/KT/KT) (MB)
THOMAS PT LIGHT  0700   75     130/  8       N/A
BALT KEY BRIDGE  0600   75     100/  8/  9 1019.8S
COVE POINT       0600   76     170/ 10/ 11 1020.1F
LEWISETTA        0600   76 80  180/  6/  7 1019.2S
SOLOMONS ISLAND  0600      81                N/A
PINEY POINT      0600          160/  9/ 11   N/A

$$



USA.gov is the U.S. government's official web portal to all federal, state and local government web resources and services.